Kejimkujik, Nova Scotia

1:24 AM AST on December 04, 2016 (GMT -0400)
Kejimkujik

Weather History for CWKG - January, 2013

Change the Weather History Date:

Sunday, January 20, 2013

  Actual Average (CYZX) Record (CYZX)
Temperature  
Mean Temperature 40 °F -  
Max Temperature 49 °F 27 °F 51 °F (2013)
Min Temperature 31 °F 11 °F -2 °F (2000)
Degree Days  
Heating Degree Days 25    
Moisture  
Dew Point 35 °F    
Average Humidity 85    
Maximum Humidity 100    
Minimum Humidity 44    
Precipitation  
Precipitation 0.60 in - - ()
Sea Level Pressure  
Sea Level Pressure 29.85 in    
Wind  
Wind Speed 7 mph ()    
Max Wind Speed 16 mph    
Max Gust Speed 37 mph    
Averages and records for this station are not official NWS values.
T = Trace of Precipitation, MM = Missing Value Source: Averaged Metar Reports

Daily Weather History Graph

Daily Weather History Graph

Search for Another Location

Airport or City:

Trip Planner

Search our weather history database for the weather conditions in past years. The results will help you decide how hot, cold, wet, or windy it might be!

Date:

Astronomy

Jan. 20, 2013 Rise Set
Actual Time 7:50 AM AST 5:13 PM AST
Civil Twilight 7:18 AM AST 5:45 PM AST
Nautical Twilight 6:42 AM AST 6:21 PM AST
Astronomical Twilight 6:08 AM AST 6:56 PM AST
Moon 12:13 PM AST (1/20) 2:17 AM AST (1/20)
Length of Visible Light 10h 27m
Length of Day
9h 23m
Waxing Gibbous, 66% of the Moon is Illuminated
Jan 20
Waxing Gibbous
Jan 27
Full
Feb 3
Last Quarter
Feb 10
New
Feb 17
First Quarter

Hourly Weather History & Observations

Time (AST) Temp. Windchill Dew Point Humidity Pressure Visibility Wind Dir Wind Speed Gust Speed Precip Events Conditions
12:00 AM 31.5 °F - 31.5 °F 100% 30.14 in - SE 2.3 mph - N/A   Unknown
1:00 AM 31.3 °F 26.6 °F 31.5 °F 100% 30.14 in - SSE 4.6 mph - N/A   Unknown
2:00 AM 33 °F - 33 °F 99% 30.13 in - SSE 4.6 mph - -  
2:00 AM 32.9 °F 28.5 °F 32.9 °F 100% 30.13 in - SSE 4.6 mph - N/A   Unknown
3:00 AM 32.9 °F 27.5 °F 32.9 °F 100% 30.12 in - SSE 5.8 mph - N/A   Unknown
4:00 AM 33.3 °F 27.1 °F 33.3 °F 100% 30.10 in - SSE 6.9 mph - N/A   Unknown
5:00 AM 34.0 °F 28.0 °F 34.0 °F 100% 30.06 in - South 6.9 mph - N/A   Unknown
6:00 AM 34.5 °F 28.6 °F 34.5 °F 100% 30.04 in - South 6.9 mph - N/A   Unknown
7:00 AM 34.9 °F 29.9 °F 34.7 °F 99% 29.99 in - South 5.8 mph - N/A   Unknown
8:00 AM 38 °F - 38 °F 100% 29.96 in - SSW 5.8 mph - -  
8:00 AM 38.1 °F 33.7 °F 37.9 °F 99% 29.96 in - SSW 5.8 mph - N/A   Unknown
9:00 AM 40.1 °F 34.7 °F 39.9 °F 99% 29.93 in - SW 8.1 mph - N/A   Unknown
10:00 AM 42.1 °F 37.1 °F 41.7 °F 99% 29.90 in - SW 8.1 mph - N/A   Unknown
11:00 AM 43.0 °F 37.2 °F 42.4 °F 98% 29.84 in - SW 10.4 mph - N/A   Unknown
12:00 PM 46.2 °F 41.7 °F 43.3 °F 90% 29.78 in - WSW 9.2 mph 20.7 mph N/A   Unknown
1:00 PM 48.9 °F - 38.7 °F 68% 29.70 in - WSW 13.8 mph 24.2 mph N/A   Unknown
2:00 PM 49 °F - 34 °F 44% 29.66 in - West 16.1 mph - -  
2:00 PM 49.1 °F - 34.0 °F 56% 29.66 in - West 16.1 mph 31.1 mph N/A   Unknown
3:00 PM 48.2 °F - 37.4 °F 66% 29.65 in - West 16.1 mph 29.9 mph N/A   Unknown
4:00 PM 46.2 °F 39.5 °F 36.7 °F 69% 29.64 in - West 16.1 mph 36.8 mph N/A   Unknown
5:00 PM 44.1 °F 37.7 °F 36.5 °F 75% 29.65 in - West 12.7 mph 29.9 mph N/A   Unknown
6:00 PM 42.8 °F 37.0 °F 36.0 °F 77% 29.65 in - West 10.4 mph 21.9 mph N/A   Unknown
7:00 PM 41.7 °F 35.2 °F 35.8 °F 79% 29.65 in - West 11.5 mph 25.3 mph N/A   Unknown
8:00 PM 41 °F - 36 °F 76% 29.66 in - WNW 10.4 mph - -  
8:00 PM 41.2 °F 35.0 °F 36.0 °F 82% 29.66 in - WNW 10.4 mph 24.2 mph N/A   Unknown
9:00 PM 39.2 °F 33.0 °F 29.7 °F 69% 29.68 in - WNW 9.2 mph 20.7 mph N/A   Unknown
10:00 PM 36.7 °F 31.2 °F 29.3 °F 75% 29.69 in - NW 6.9 mph - N/A   Unknown
11:00 PM 35.6 °F 30.7 °F 26.8 °F 70% 29.69 in - NW 5.8 mph - N/A   Unknown